Location: Duncanville
(32.6518°N, 96.9083°W)
Time: 10:50:21
(UTC+00:00)

OAO 2 Rocket - Pass Details

Date: 11 February 2026
Orbit: 668 x 734 km, 35.0° (Epoch: 8 March)

Event Time Altitude Azimuth Distance (km) Brightness Sun altitude
Exits shadow 12:13:14 20° 278° (W) 1,635 4.6 -13.4°
Maximum altitude 12:16:48 65° 201° (SSW) 792 3.5 -12.6°
Drops below altitude 10° 12:21:58 10° 120° (ESE) 2,215 7.1 -11.6°
Sets 12:24:26 0° 117° (ESE) 3,139 8.3 -11.1°
